OMD1106 NZQN-NZAA

Flight info

Callsign OMD1106
Flight time 1h 24m
Altitude 37000
Route QN Y569 LOVTA Y655 POKOM Q277 DAVEE
Aircraft A20N/M-SDE2E3FGHIRWXY/LB1

Departure

Time 2026-05-06 01:02
Airport Queenstown Airport (NZQN)

Arrival

Time 2026-05-06 02:26
Airport Auckland International Airport (NZAA)
Time Latitude Longitude Altitude Speed Heading
2026-05-06 00:52 -45.02109 168.73964 1171 ft 0 kts 207°
2026-05-06 00:56 -45.02107 168.73964 1171 ft 2 kts 207°
2026-05-06 00:57 -45.02098 168.73971 1167 ft 2 kts 207°
2026-05-06 00:57 -45.02089 168.73978 1169 ft 2 kts 205°
2026-05-06 00:57 -45.02058 168.73982 1169 ft 4 kts 158°
2026-05-06 00:57 -45.02048 168.73975 1169 ft 0 kts 138°
2026-05-06 00:59 -45.02062 168.73995 1169 ft 10 kts 129°
2026-05-06 00:59 -45.02054 168.74047 1170 ft 3 kts 24°
2026-05-06 01:00 -45.02002 168.74079 1176 ft 19 kts 24°
2026-05-06 01:00 -45.01919 168.74074 1176 ft 7 kts 291°
2026-05-06 01:00 -45.01936 168.73991 1174 ft 14 kts 250°
2026-05-06 01:00 -45.01965 168.73797 1173 ft 29 kts 264°
2026-05-06 01:01 -45.02000 168.73533 1164 ft 2 kts 213°
2026-05-06 01:01 -45.02006 168.73543 1166 ft 1 kts 107°
2026-05-06 01:01 -45.01955 168.73834 1172 ft 83 kts 76°
2026-05-06 01:01 -45.01758 168.75064 1404 ft 155 kts 75°
2026-05-06 01:02 -45.01501 168.76622 2408 ft 173 kts 75°
2026-05-06 01:02 -45.01224 168.78387 3397 ft 192 kts 75°
2026-05-06 01:02 -45.00594 168.80134 4376 ft 212 kts 43°
2026-05-06 01:02 -44.99293 168.81259 5330 ft 230 kts 19°
2026-05-06 01:03 -44.97713 168.82019 6271 ft 254 kts 15°
2026-05-06 01:03 -44.95978 168.82902 7229 ft 273 kts 18°
2026-05-06 01:03 -44.94211 168.84004 8500 ft 279 kts 20°
2026-05-06 01:03 -44.92451 168.85253 9858 ft 286 kts 19°
2026-05-06 01:04 -44.90688 168.86570 11015 ft 294 kts 20°
2026-05-06 01:04 -44.88859 168.87955 12099 ft 302 kts 20°
2026-05-06 01:04 -44.86971 168.89389 13187 ft 310 kts 21°
2026-05-06 01:04 -44.85045 168.90849 14194 ft 318 kts 21°
2026-05-06 01:05 -44.83095 168.92324 15197 ft 324 kts 22°
2026-05-06 01:05 -44.81090 168.93836 16303 ft 327 kts 22°
2026-05-06 01:05 -44.79060 168.95361 17321 ft 332 kts 22°
2026-05-06 01:05 -44.77006 168.96902 18341 ft 337 kts 23°
2026-05-06 01:06 -44.74956 168.98439 19206 ft 341 kts 23°
2026-05-06 01:06 -44.72836 169.00031 20117 ft 344 kts 23°
2026-05-06 01:06 -44.70707 169.01633 21016 ft 348 kts 23°
2026-05-06 01:06 -44.68581 169.03231 21885 ft 352 kts 23°
2026-05-06 01:07 -44.66406 169.04864 22768 ft 356 kts 23°
2026-05-06 01:07 -44.64201 169.06517 23641 ft 360 kts 23°
2026-05-06 01:07 -44.61980 169.08181 24356 ft 364 kts 22°
2026-05-06 01:07 -44.59731 169.09865 25072 ft 367 kts 22°
2026-05-06 01:08 -44.57493 169.11540 25760 ft 371 kts 22°
2026-05-06 01:08 -44.55193 169.13259 26434 ft 375 kts 22°
2026-05-06 01:08 -44.52878 169.14988 27144 ft 378 kts 22°
2026-05-06 01:08 -44.51326 169.16147 27619 ft 380 kts 21°
2026-05-06 01:09 -44.48195 169.18481 28508 ft 385 kts 21°
2026-05-06 01:09 -44.46621 169.19653 28938 ft 388 kts 21°
2026-05-06 01:09 -44.44219 169.21439 29553 ft 391 kts 21°
2026-05-06 01:09 -44.41800 169.23236 30194 ft 395 kts 21°
2026-05-06 01:10 -44.39362 169.25046 30667 ft 398 kts 21°
2026-05-06 01:10 -44.36898 169.26874 31132 ft 401 kts 21°
2026-05-06 01:10 -44.34452 169.28689 31687 ft 402 kts 20°
2026-05-06 01:10 -44.31962 169.30535 32234 ft 404 kts 20°
2026-05-06 01:11 -44.29473 169.32381 32849 ft 404 kts 20°
2026-05-06 01:11 -44.26987 169.34223 33432 ft 405 kts 19°
2026-05-06 01:11 -44.24489 169.36068 33974 ft 406 kts 19°
2026-05-06 01:11 -44.22013 169.37895 34464 ft 406 kts 19°
2026-05-06 01:12 -44.19507 169.39740 34895 ft 407 kts 19°
2026-05-06 01:12 -44.16988 169.41592 35327 ft 408 kts 19°
2026-05-06 01:12 -44.14498 169.43422 35740 ft 409 kts 19°
2026-05-06 01:12 -44.11970 169.45278 36155 ft 411 kts 19°
2026-05-06 01:13 -44.09438 169.47133 36611 ft 411 kts 20°
2026-05-06 01:13 -44.06896 169.48995 37043 ft 411 kts 20°
2026-05-06 01:13 -44.04343 169.50859 37229 ft 418 kts 20°
2026-05-06 01:14 -43.96352 169.56676 37258 ft 448 kts 21°
2026-05-06 01:14 -43.90738 169.60769 37257 ft 467 kts 21°
2026-05-06 01:15 -43.84860 169.65050 37263 ft 481 kts 21°
2026-05-06 01:15 -43.78960 169.69344 37262 ft 481 kts 21°
2026-05-06 01:16 -43.73015 169.73655 37269 ft 481 kts 21°
2026-05-06 01:16 -43.67071 169.77949 37267 ft 481 kts 21°
2026-05-06 01:17 -43.61124 169.82238 37265 ft 481 kts 21°
2026-05-06 01:17 -43.55194 169.86499 37275 ft 483 kts 21°
2026-05-06 01:18 -43.49258 169.90892 37276 ft 486 kts 26°
2026-05-06 01:18 -43.43888 169.96633 37281 ft 494 kts 35°
2026-05-06 01:19 -43.38642 170.02790 37284 ft 494 kts 35°
2026-05-06 01:19 -43.33584 170.08691 37286 ft 495 kts 35°
2026-05-06 01:20 -43.28565 170.14522 37288 ft 495 kts 35°
2026-05-06 01:20 -43.23486 170.20407 37292 ft 495 kts 35°
2026-05-06 01:21 -43.18237 170.26476 37292 ft 496 kts 35°
2026-05-06 01:21 -43.12949 170.32575 37295 ft 495 kts 35°
2026-05-06 01:22 -43.07689 170.38628 37295 ft 495 kts 35°
2026-05-06 01:22 -43.02431 170.44664 37294 ft 495 kts 35°
2026-05-06 01:23 -42.97135 170.50731 37294 ft 495 kts 35°
2026-05-06 01:23 -42.91844 170.56777 37299 ft 495 kts 35°
2026-05-06 01:24 -42.86583 170.62776 37303 ft 495 kts 35°
2026-05-06 01:24 -42.81297 170.68788 37301 ft 495 kts 35°
2026-05-06 01:25 -42.76025 170.74772 37305 ft 494 kts 35°
2026-05-06 01:25 -42.70739 170.80757 37304 ft 494 kts 35°
2026-05-06 01:26 -42.65466 170.86715 37306 ft 493 kts 35°
2026-05-06 01:26 -42.60178 170.92675 37307 ft 494 kts 35°
2026-05-06 01:27 -42.54874 170.98640 37304 ft 494 kts 35°
2026-05-06 01:27 -42.49611 171.04545 37310 ft 493 kts 35°
2026-05-06 01:28 -42.44297 171.10494 37306 ft 493 kts 35°
2026-05-06 01:28 -42.39039 171.16368 37319 ft 493 kts 35°
2026-05-06 01:29 -42.33727 171.22287 37313 ft 492 kts 35°
2026-05-06 01:29 -42.28455 171.28149 37315 ft 492 kts 35°
2026-05-06 01:30 -42.23154 171.34030 37321 ft 492 kts 35°
2026-05-06 01:30 -42.17901 171.39846 37313 ft 491 kts 35°
2026-05-06 01:31 -42.12599 171.45701 37311 ft 491 kts 35°
2026-05-06 01:31 -42.07287 171.51555 37320 ft 491 kts 35°
2026-05-06 01:32 -42.02015 171.57354 37314 ft 491 kts 35°
2026-05-06 01:32 -41.96774 171.63174 37319 ft 492 kts 37°
2026-05-06 01:33 -41.91712 171.69396 37321 ft 492 kts 39°
2026-05-06 01:33 -41.86669 171.75633 37325 ft 492 kts 38°
2026-05-06 01:34 -41.81633 171.81770 37326 ft 491 kts 38°
2026-05-06 01:34 -41.76549 171.87928 37326 ft 491 kts 38°
2026-05-06 01:35 -41.71501 171.94028 37332 ft 491 kts 38°
2026-05-06 01:35 -41.66419 172.00156 37332 ft 491 kts 38°
2026-05-06 01:36 -41.61330 172.06281 37334 ft 491 kts 38°
2026-05-06 01:36 -41.56280 172.12344 37332 ft 491 kts 38°
2026-05-06 01:37 -41.51175 172.18460 37326 ft 491 kts 38°
2026-05-06 01:37 -41.46115 172.24508 37330 ft 491 kts 38°
2026-05-06 01:38 -41.41003 172.30606 37331 ft 492 kts 38°
2026-05-06 01:38 -41.35924 172.36650 37323 ft 492 kts 38°
2026-05-06 01:39 -41.30803 172.42732 37320 ft 492 kts 38°
2026-05-06 01:39 -41.25712 172.48764 37327 ft 493 kts 38°
2026-05-06 01:40 -41.20572 172.54842 37324 ft 494 kts 38°
2026-05-06 01:40 -41.15424 172.60917 37322 ft 493 kts 38°
2026-05-06 01:41 -41.10298 172.66950 37325 ft 494 kts 38°
2026-05-06 01:41 -41.05208 172.72929 37330 ft 493 kts 38°
2026-05-06 01:42 -41.00464 172.78485 37325 ft 501 kts 38°
2026-05-06 01:42 -40.95238 172.84601 37330 ft 498 kts 38°
2026-05-06 01:43 -40.90057 172.90652 37339 ft 495 kts 38°
2026-05-06 01:43 -40.84919 172.96635 37333 ft 496 kts 38°
2026-05-06 01:44 -40.79733 173.02661 37335 ft 496 kts 39°
2026-05-06 01:44 -40.74534 173.08689 37339 ft 496 kts 39°
2026-05-06 01:45 -40.69358 173.14679 37339 ft 497 kts 39°
2026-05-06 01:45 -40.64173 173.20666 37336 ft 497 kts 39°
2026-05-06 01:46 -40.58943 173.26692 37341 ft 497 kts 39°
2026-05-06 01:46 -40.53763 173.32647 37340 ft 497 kts 39°
2026-05-06 01:47 -40.48531 173.38649 37343 ft 497 kts 39°
2026-05-06 01:47 -40.43328 173.44609 37346 ft 497 kts 39°
2026-05-06 01:48 -40.38100 173.50570 37346 ft 498 kts 39°
2026-05-06 01:48 -40.32873 173.56511 37348 ft 498 kts 39°
2026-05-06 01:49 -40.27615 173.62477 37348 ft 498 kts 39°
2026-05-06 01:49 -40.22399 173.68385 37347 ft 499 kts 39°
2026-05-06 01:50 -40.17135 173.74334 37347 ft 498 kts 39°
2026-05-06 01:50 -40.11904 173.80234 37349 ft 498 kts 39°
2026-05-06 01:51 -40.06629 173.86169 37349 ft 498 kts 39°
2026-05-06 01:51 -40.01400 173.92042 37348 ft 498 kts 39°
2026-05-06 01:52 -39.96153 173.97921 37348 ft 498 kts 39°
2026-05-06 01:52 -39.90883 174.03815 37350 ft 498 kts 39°
2026-05-06 01:53 -39.85648 174.09656 37351 ft 498 kts 39°
2026-05-06 01:53 -39.80370 174.15534 37351 ft 497 kts 39°
2026-05-06 01:54 -39.75131 174.21357 37348 ft 497 kts 39°
2026-05-06 01:54 -39.69857 174.27205 37350 ft 497 kts 39°
2026-05-06 01:55 -39.64621 174.33000 37356 ft 497 kts 39°
2026-05-06 01:55 -39.59333 174.38839 37362 ft 497 kts 39°
2026-05-06 01:56 -39.54087 174.44620 37359 ft 497 kts 39°
2026-05-06 01:56 -39.48339 174.49535 37359 ft 494 kts 21°
2026-05-06 01:57 -39.45076 174.50904 37367 ft 491 kts
2026-05-06 01:57 -39.41702 174.51612 37366 ft 489 kts
2026-05-06 01:57 -39.34999 174.52877 37374 ft 489 kts
2026-05-06 01:58 -39.28251 174.54164 37371 ft 490 kts
2026-05-06 01:58 -39.21486 174.55456 37373 ft 490 kts
2026-05-06 01:59 -39.14764 174.56736 37378 ft 490 kts
2026-05-06 01:59 -39.08007 174.58022 37379 ft 490 kts
2026-05-06 02:00 -39.01276 174.59303 37381 ft 490 kts
2026-05-06 02:00 -38.94520 174.60586 37381 ft 490 kts
2026-05-06 02:01 -38.87797 174.61860 37379 ft 490 kts
2026-05-06 02:01 -38.81019 174.63142 37382 ft 491 kts
2026-05-06 02:02 -38.74305 174.64410 37317 ft 488 kts
2026-05-06 02:02 -38.70959 174.65041 36661 ft 483 kts
2026-05-06 02:02 -38.67623 174.65669 35366 ft 486 kts
2026-05-06 02:03 -38.64242 174.66303 33731 ft 493 kts
2026-05-06 02:03 -38.60820 174.66943 31981 ft 499 kts
2026-05-06 02:03 -38.57404 174.67584 30423 ft 502 kts
2026-05-06 02:03 -38.53969 174.68231 29300 ft 491 kts
2026-05-06 02:04 -38.50630 174.68860 28265 ft 478 kts
2026-05-06 02:04 -38.47355 174.69475 27195 ft 468 kts
2026-05-06 02:04 -38.44196 174.70067 26165 ft 459 kts
2026-05-06 02:04 -38.41056 174.70654 25150 ft 450 kts
2026-05-06 02:05 -38.37976 174.71229 24143 ft 442 kts
2026-05-06 02:05 -38.34961 174.71791 23102 ft 433 kts
2026-05-06 02:05 -38.32018 174.72341 22139 ft 421 kts
2026-05-06 02:05 -38.29154 174.72875 21207 ft 409 kts
2026-05-06 02:06 -38.26403 174.73388 20293 ft 399 kts
2026-05-06 02:06 -38.23681 174.73895 19393 ft 389 kts
2026-05-06 02:06 -38.21027 174.74389 18507 ft 379 kts
2026-05-06 02:06 -38.18478 174.74863 17435 ft 371 kts
2026-05-06 02:07 -38.15925 174.75334 16323 ft 367 kts
2026-05-06 02:07 -38.13418 174.75796 15275 ft 362 kts
2026-05-06 02:07 -38.10963 174.76250 14301 ft 357 kts
2026-05-06 02:07 -38.08512 174.76704 13257 ft 351 kts
2026-05-06 02:08 -38.06106 174.77150 12239 ft 345 kts
2026-05-06 02:08 -38.03758 174.77586 11570 ft 332 kts
2026-05-06 02:08 -38.01586 174.77991 11269 ft 309 kts
2026-05-06 02:08 -37.99456 174.78385 10342 ft 310 kts
2026-05-06 02:09 -37.97318 174.78778 9428 ft 308 kts
2026-05-06 02:09 -37.95211 174.79167 8632 ft 303 kts
2026-05-06 02:09 -37.93146 174.79549 8193 ft 300 kts
2026-05-06 02:09 -37.91061 174.79932 8039 ft 302 kts
2026-05-06 02:10 -37.89009 174.80192 7999 ft 298 kts 356°
2026-05-06 02:10 -37.86980 174.79646 7997 ft 299 kts 342°
2026-05-06 02:10 -37.85015 174.78752 7998 ft 299 kts 340°
2026-05-06 02:10 -37.83050 174.77867 8003 ft 299 kts 341°
2026-05-06 02:11 -37.81067 174.77074 7994 ft 299 kts 343°
2026-05-06 02:11 -37.79086 174.76364 7995 ft 299 kts 345°
2026-05-06 02:11 -37.77071 174.75692 7996 ft 299 kts 345°
2026-05-06 02:11 -37.75057 174.75043 7998 ft 299 kts 346°
2026-05-06 02:12 -37.73079 174.74413 7994 ft 299 kts 346°
2026-05-06 02:12 -37.72033 174.74079 7993 ft 299 kts 346°
2026-05-06 02:12 -37.70040 174.73445 7998 ft 299 kts 346°
2026-05-06 02:12 -37.68014 174.72798 7995 ft 300 kts 346°
2026-05-06 02:13 -37.65993 174.72153 7997 ft 300 kts 346°
2026-05-06 02:13 -37.63965 174.71504 7996 ft 300 kts 346°
2026-05-06 02:13 -37.61944 174.70858 7993 ft 300 kts 346°
2026-05-06 02:13 -37.59943 174.70219 7998 ft 300 kts 346°
2026-05-06 02:14 -37.57920 174.69573 7992 ft 300 kts 346°
2026-05-06 02:14 -37.55895 174.68927 7991 ft 300 kts 346°
2026-05-06 02:14 -37.53870 174.68281 7996 ft 300 kts 346°
2026-05-06 02:14 -37.51845 174.67635 7990 ft 300 kts 346°
2026-05-06 02:15 -37.49813 174.66987 7993 ft 300 kts 346°
2026-05-06 02:15 -37.47784 174.66341 7995 ft 300 kts 346°
2026-05-06 02:15 -37.45777 174.65702 7991 ft 300 kts 346°
2026-05-06 02:15 -37.43747 174.65056 7992 ft 301 kts 346°
2026-05-06 02:16 -37.41713 174.64409 7991 ft 301 kts 346°
2026-05-06 02:16 -37.39674 174.63761 8001 ft 301 kts 346°
2026-05-06 02:16 -37.37648 174.63117 7862 ft 299 kts 346°
2026-05-06 02:16 -37.35659 174.62486 7443 ft 297 kts 346°
2026-05-06 02:17 -37.33658 174.61850 6930 ft 295 kts 346°
2026-05-06 02:17 -37.31675 174.61220 6281 ft 290 kts 346°
2026-05-06 02:17 -37.29742 174.60607 5456 ft 288 kts 346°
2026-05-06 02:17 -37.27804 174.59993 4621 ft 285 kts 347°
2026-05-06 02:18 -37.25888 174.59387 3805 ft 282 kts 347°
2026-05-06 02:18 -37.23996 174.58787 3264 ft 280 kts 347°
2026-05-06 02:18 -37.22097 174.58186 3056 ft 280 kts 347°
2026-05-06 02:18 -37.20225 174.57594 2996 ft 280 kts 347°
2026-05-06 02:19 -37.18373 174.57007 2996 ft 262 kts 347°
2026-05-06 02:19 -37.16673 174.56467 2996 ft 242 kts 348°
2026-05-06 02:19 -37.15100 174.55969 2998 ft 225 kts 348°
2026-05-06 02:19 -37.14118 174.55658 2994 ft 215 kts 348°
2026-05-06 02:20 -37.11371 174.54795 2994 ft 198 kts 348°
2026-05-06 02:20 -37.10045 174.54382 2988 ft 197 kts 350°
2026-05-06 02:20 -37.08703 174.54473 2983 ft 194 kts 21°
2026-05-06 02:21 -37.07631 174.55501 2989 ft 198 kts 54°
2026-05-06 02:21 -37.07120 174.57043 2998 ft 189 kts 69°
2026-05-06 02:21 -37.06743 174.58508 2987 ft 162 kts 68°
2026-05-06 02:21 -37.06380 174.59878 2999 ft 168 kts 67°
2026-05-06 02:22 -37.06011 174.61232 2820 ft 161 kts 67°
2026-05-06 02:22 -37.05648 174.62558 2339 ft 161 kts 66°
2026-05-06 02:22 -37.05275 174.63886 2073 ft 162 kts 67°
2026-05-06 02:22 -37.04905 174.65236 1997 ft 164 kts 67°
2026-05-06 02:23 -37.04540 174.66570 2009 ft 163 kts 66°
2026-05-06 02:23 -37.04168 174.67913 1990 ft 163 kts 67°
2026-05-06 02:23 -37.03826 174.69155 1981 ft 142 kts 66°
2026-05-06 02:23 -37.03511 174.70299 1783 ft 139 kts 67°
2026-05-06 02:24 -37.03207 174.71446 1527 ft 137 kts 68°
2026-05-06 02:24 -37.02885 174.72564 1211 ft 137 kts 66°
2026-05-06 02:24 -37.02557 174.73664 913 ft 135 kts 67°
2026-05-06 02:24 -37.02274 174.74793 627 ft 134 kts 68°
2026-05-06 02:25 -37.01976 174.75875 356 ft 128 kts 65°
2026-05-06 02:25 -37.01666 174.76974 126 ft 137 kts 66°
2026-05-06 02:25 -37.01374 174.78047 30 ft 118 kts 67°
2026-05-06 02:25 -37.01157 174.78779 27 ft 51 kts 68°
2026-05-06 02:26 -37.01042 174.79204 26 ft 54 kts 76°
2026-05-06 02:26 -37.00876 174.79614 28 ft 52 kts 40°
2026-05-06 02:26 -37.00726 174.79711 28 ft 10 kts 320°
2026-05-06 02:26 -37.00738 174.79632 28 ft 18 kts 243°
2026-05-06 02:27 -37.00796 174.79400 26 ft 37 kts 251°
2026-05-06 02:27 -37.00893 174.79030 26 ft 49 kts 256°
2026-05-06 02:27 -37.00989 174.78674 31 ft 45 kts 248°
2026-05-06 02:27 -37.00994 174.78366 29 ft 21 kts 328°
2026-05-06 02:28 -37.00894 174.78421 29 ft 22 kts 77°
2026-05-06 02:28 -37.00819 174.78693 28 ft 37 kts 73°
2026-05-06 02:28 -37.00764 174.78807 26 ft 8 kts 355°
2026-05-06 02:28 -37.00712 174.78733 27 ft 15 kts 296°
2026-05-06 02:29 -37.00714 174.78668 27 ft 0 kts 233°
2026-05-06 02:29 -37.00729 174.78662 27 ft 5 kts 176°
2026-05-06 02:29 -37.00754 174.78682 27 ft 0 kts 150°